This is the latest recevied weather packets stored in our database for station/object SR5MRF. If no packets are shown the sender has not sent any weather packets the latest 10 day(s).
| Time | Temp. | Humidity | Pressure | Rain* | Wind** | Luminosity | Snow |
|---|---|---|---|---|---|---|---|
| 1778072859 | 25° C | 42% | 1002.6 hPa | 0 mm | - | - | - |
| 1778072439 | 25° C | 42% | 1002.5 hPa | 0 mm | - | - | - |
| 1778072320 | 25° C | 42% | 1002.7 hPa | 0 mm | - | - | - |
| 1778072019 | 25° C | 43% | 1002.6 hPa | 0 mm | - | - | - |
| 1778071599 | 24.44° C | 43% | 1002.6 hPa | 0 mm | - | - | - |
| 1778071179 | 24.44° C | 43% | 1002.8 hPa | 0 mm | - | - | - |
| 1778071120 | 24.44° C | 43% | 1002.7 hPa | 0 mm | - | - | - |
| 1778070759 | 24.44° C | 43% | 1002.7 hPa | 0 mm | - | - | - |
| 1778070520 | 24.44° C | 42% | 1002.7 hPa | 0 mm | - | - | - |
| 1778070339 | 25° C | 42% | 1002.7 hPa | 0 mm | - | - | - |
| 1778069919 | 25° C | 41% | 1002.8 hPa | 0 mm | - | - | - |
| 1778069499 | 25° C | 41% | 1002.7 hPa | 0 mm | - | - | - |
| 1778069320 | 25.56° C | 41% | 1002.6 hPa | 0 mm | - | - | - |
| 1778069079 | 25.56° C | 41% | 1002.6 hPa | 0 mm | - | - | - |
| 1778068720 | 25.56° C | 41% | 1002.6 hPa | 0 mm | - | - | - |
| 1778068659 | 25.56° C | 40% | 1002.7 hPa | 0 mm | - | - | - |
| 1778068239 | 25.56° C | 40% | 1002.6 hPa | 0 mm | - | - | - |
| 1778068120 | 25.56° C | 40% | 1002.6 hPa | 0 mm | - | - | - |
| 1778067819 | 25.56° C | 40% | 1002.7 hPa | 0 mm | - | - | - |
| 1778067399 | 26.11° C | 39% | 1002.7 hPa | 0 mm | - | - | - |
| 1778066979 | 26.67° C | 38% | 1002.7 hPa | 0 mm | - | - | - |
| 1778066920 | 26.67° C | 38% | 1002.7 hPa | 0 mm | - | - | - |
| 1778066559 | 26.67° C | 38% | 1002.7 hPa | 0 mm | - | - | - |
| 1778066320 | 27.22° C | 38% | 1002.7 hPa | 0 mm | - | - | - |
| 1778066139 | 27.22° C | 38% | 1002.7 hPa | 0 mm | - | - | - |
* Rain latest hour (hover to see other rain measurements)
** Current wind speed in m/s (hover to see current wind gust speed)